| time (UTC) | temp C | wind direction | speed KPH | gust KPH | rain 1hr cm | rain 24hr cm | rain mn cm | humidity % | barometer mb |
| 20260906233253 | 34 | 183 | 0.0 | 3.2 | 0.00 | 0.00 | 0.00 | 19 | 1001.7 |
| 20260906232307 | 34 | 183 | 0.0 | 0.0 | 0.00 | 0.00 | 0.00 | 19 | 1001.8 |
| 20260906231246 | 34 | 183 | 1.6 | 11.3 | 0.00 | 0.00 | 0.00 | 19 | 1001.8 |
| 20260906225044 | 35 | 183 | 0.0 | 0.0 | 0.00 | 0.00 | 0.00 | 19 | 1001.8 |
| 20260906224042 | 34 | 183 | 0.0 | 8.0 | 0.00 | 0.00 | 0.00 | 19 | 1001.8 |
| 20260906223015 | 34 | 173 | 0.0 | 0.0 | 0.00 | 0.00 | 0.00 | 18 | 1001.9 |
| 20260906222020 | 34 | 173 | 1.6 | 0.0 | 0.00 | 0.00 | 0.00 | 19 | 1002.0 |
| 20260906221003 | 34 | 173 | 0.0 | 6.4 | 0.00 | 0.00 | 0.00 | 19 | 1002.2 |
| 20260906215955 | 34 | 173 | 0.0 | 6.4 | 0.00 | 0.00 | 0.00 | 18 | 1002.5 |
| 20260906215007 | 34 | 173 | 0.0 | 3.2 | 0.00 | 0.00 | 0.00 | 19 | 1002.6 |
| 20260906213938 | 34 | 173 | 1.6 | 0.0 | 0.00 | 0.00 | 0.00 | 20 | 1002.8 |
| 20260906212943 | 34 | 173 | 0.0 | 9.7 | 0.00 | 0.00 | 0.00 | 19 | 1003.1 |
| 20260906212008 | 34 | 167 | 0.0 | 4.8 | 0.00 | 0.00 | 0.00 | 18 | 1003.2 |
| 20260906210937 | 34 | 167 | 0.0 | 0.0 | 0.00 | 0.00 | 0.00 | 17 | 1003.4 |
| 20260906204745 | 34 | 167 | 0.0 | 0.0 | 0.00 | 0.00 | 0.00 | 17 | 1003.8 |
| 20260906203737 | 33 | 167 | 0.0 | 0.0 | 0.00 | 0.00 | 0.00 | 18 | 1004.0 |
| 20260906202721 | 33 | 167 | 0.0 | 11.3 | 0.00 | 0.00 | 0.00 | 18 | 1004.1 |
| 20260906201658 | 33 | 167 | 4.8 | 14.5 | 0.00 | 0.00 | 0.00 | 17 | 1004.3 |
| 20260906200710 | 34 | 178 | 3.2 | 11.3 | 0.00 | 0.00 | 0.00 | 17 | 1004.3 |
| 20260906195725 | 34 | 180 | 0.0 | 0.0 | 0.00 | 0.00 | 0.00 | 17 | 1004.4 |
| 20260906194749 | 34 | 180 | 0.0 | 0.0 | 0.00 | 0.00 | 0.00 | 16 | 1004.6 |
| 20260906193737 | 34 | 180 | 0.0 | 0.0 | 0.00 | 0.00 | 0.00 | 17 | 1004.7 |
| 20260906192752 | 33 | 180 | 0.0 | 4.8 | 0.00 | 0.00 | 0.00 | 17 | 1004.8 |
| 20260906191740 | 33 | 179 | 0.0 | 4.8 | 0.00 | 0.00 | 0.00 | 17 | 1005.0 |
| 20260906190730 | 33 | 179 | 0.0 | 0.0 | 0.00 | 0.00 | 0.00 | 18 | 1005.2 |
| 20260906185714 | 33 | 178 | 0.0 | 0.0 | 0.00 | 0.00 | 0.00 | 19 | 1005.3 |
| 20260906183542 | 33 | 328 | 0.0 | 0.0 | 0.00 | 0.00 | 0.00 | 20 | 1005.8 |
| 20260906182551 | 33 | 328 | 0.0 | 4.8 | 0.00 | 0.00 | 0.00 | 20 | 1005.9 |
| 20260906181546 | 32 | 328 | 1.6 | 3.2 | 0.00 | 0.00 | 0.00 | 22 | 1006.2 |
| 20260906180539 | 32 | 328 | 1.6 | 8.0 | 0.00 | 0.00 | 0.00 | 22 | 1006.4 |
| 20260906175537 | 32 | 331 | 0.0 | 0.0 | 0.00 | 0.00 | 0.00 | 24 | 1006.6 |
| 20260906174538 | 31 | 332 | 0.0 | 4.8 | 0.00 | 0.00 | 0.00 | 25 | 1006.7 |
| 20260906173550 | 31 | 335 | 0.0 | 0.0 | 0.00 | 0.00 | 0.00 | 27 | 1006.7 |
| 20260906171430 | 31 | 335 | 0.0 | 0.0 | 0.00 | 0.00 | 0.00 | 29 | 1007.0 |
| 20260906170425 | 30 | 335 | 0.0 | 0.0 | 0.00 | 0.00 | 0.00 | 31 | 1007.2 |
| 20260906165408 | 30 | 335 | 0.0 | 0.0 | 0.00 | 0.00 | 0.00 | 31 | 1007.3 |
| 20260906164400 | 29 | 335 | 0.0 | 0.0 | 0.00 | 0.00 | 0.00 | 33 | 1007.4 |
| 20260906163356 | 28 | 335 | 0.0 | 0.0 | 0.00 | 0.00 | 0.00 | 31 | 1007.5 |
| 20260906162322 | 28 | 335 | 0.0 | 0.0 | 0.00 | 0.00 | 0.00 | 31 | 1007.5 |
| 20260906161321 | 28 | 335 | 0.0 | 0.0 | 0.00 | 0.00 | 0.00 | 31 | 1007.5 |
| 20260906155202 | 27 | 335 | 0.0 | 0.0 | 0.00 | 0.00 | 0.00 | 31 | 1007.5 |
| 20260906154152 | 28 | 335 | 0.0 | 0.0 | 0.00 | 0.00 | 0.00 | 31 | 1007.6 |
| 20260906153146 | 27 | 335 | 0.0 | 0.0 | 0.00 | 0.00 | 0.00 | 32 | 1007.5 |
| 20260906152121 | 26 | 333 | 0.0 | 3.2 | 0.00 | 0.00 | 0.00 | 33 | 1007.6 |
| 20260906151119 | 25 | 333 | 0.0 | 0.0 | 0.00 | 0.00 | 0.00 | 33 | 1007.7 |
| 20260906150135 | 25 | 333 | 0.0 | 1.6 | 0.00 | 0.00 | 0.00 | 33 | 1007.8 |
| 20260906144018 | 23 | 333 | 0.0 | 3.2 | 0.00 | 0.00 | 0.00 | 35 | 1007.7 |
| 20260906143030 | 23 | 333 | 0.0 | 0.0 | 0.00 | 0.00 | 0.00 | 37 | 1007.8 |
| 20260906142051 | 22 | 333 | 0.0 | 0.0 | 0.00 | 0.00 | 0.00 | 37 | 1007.8 |
| 20260906141056 | 22 | 333 | 0.0 | 0.0 | 0.00 | 0.00 | 0.00 | 39 | 1007.7 |
| 20260906140106 | 22 | 333 | 0.0 | 0.0 | 0.00 | 0.00 | 0.00 | 41 | 1007.8 |
| 20260906135102 | 22 | 333 | 0.0 | 0.0 | 0.00 | 0.00 | 0.00 | 36 | 1007.6 |
| 20260906134120 | 22 | 333 | 0.0 | 0.0 | 0.00 | 0.00 | 0.00 | 36 | 1007.5 |
| 20260906133133 | 21 | 333 | 0.0 | 0.0 | 0.00 | 0.00 | 0.00 | 35 | 1007.2 |
| 20260906132130 | 21 | 333 | 0.0 | 0.0 | 0.00 | 0.00 | 0.00 | 36 | 1007.2 |
| 20260906131116 | 21 | 333 | 0.0 | 3.2 | 0.00 | 0.00 | 0.00 | 36 | 1007.2 |
| 20260906130110 | 21 | 333 | 0.0 | 0.0 | 0.00 | 0.00 | 0.00 | 37 | 1007.2 |
| 20260906125043 | 21 | 333 | 0.0 | 0.0 | 0.00 | 0.00 | 0.00 | 37 | 1007.0 |
| 20260906124032 | 21 | 333 | 0.0 | 0.0 | 0.00 | 0.00 | 0.00 | 38 | 1007.0 |
| 20260906123038 | 21 | 333 | 0.0 | 0.0 | 0.00 | 0.00 | 0.00 | 38 | 1006.9 |
| 20260906122101 | 21 | 333 | 0.0 | 0.0 | 0.00 | 0.00 | 0.00 | 39 | 1007.0 |
| 20260906121034 | 21 | 333 | 0.0 | 0.0 | 0.00 | 0.00 | 0.00 | 39 | 1006.8 |
| 20260906120035 | 21 | 333 | 0.0 | 0.0 | 0.00 | 0.00 | 0.00 | 39 | 1006.8 |
| 20260906115038 | 21 | 333 | 0.0 | 0.0 | 0.00 | 0.00 | 0.00 | 40 | 1006.9 |
| 20260906112936 | 22 | 333 | 0.0 | 0.0 | 0.00 | 0.00 | 0.00 | 39 | 1006.7 |
| 20260906111907 | 22 | 333 | 0.0 | 0.0 | 0.00 | 0.00 | 0.00 | 39 | 1006.8 |
| 20260906110928 | 22 | 333 | 0.0 | 0.0 | 0.00 | 0.00 | 0.00 | 39 | 1006.8 |
| 20260906105948 | 23 | 333 | 0.0 | 0.0 | 0.00 | 0.00 | 0.00 | 38 | 1006.7 |
| 20260906103812 | 23 | 333 | 0.0 | 0.0 | 0.00 | 0.00 | 0.00 | 37 | 1006.7 |
| 20260906102756 | 23 | 333 | 0.0 | 0.0 | 0.00 | 0.00 | 0.00 | 36 | 1006.6 |
| 20260906101818 | 24 | 333 | 0.0 | 0.0 | 0.00 | 0.00 | 0.00 | 34 | 1006.5 |
| 20260906100757 | 24 | 333 | 0.0 | 0.0 | 0.00 | 0.00 | 0.00 | 34 | 1006.5 |
| 20260906095758 | 25 | 333 | 0.0 | 0.0 | 0.00 | 0.00 | 0.00 | 32 | 1006.5 |
| 20260906094812 | 25 | 333 | 0.0 | 0.0 | 0.00 | 0.00 | 0.00 | 31 | 1006.4 |
| 20260906092624 | 25 | 333 | 4.8 | 9.7 | 0.00 | 0.00 | 0.00 | 31 | 1006.1 |
| 20260906090450 | 25 | 274 | 6.4 | 12.9 | 0.00 | 0.00 | 0.00 | 33 | 1006.1 |
| 20260906085451 | 25 | 279 | 4.8 | 9.7 | 0.00 | 0.00 | 0.00 | 33 | 1006.0 |
| 20260906084452 | 25 | 256 | 4.8 | 9.7 | 0.00 | 0.00 | 0.00 | 33 | 1006.1 |
| 20260906083433 | 25 | 279 | 4.8 | 8.0 | 0.00 | 0.00 | 0.00 | 33 | 1006.2 |
| 20260906082409 | 25 | 279 | 3.2 | 6.4 | 0.00 | 0.00 | 0.00 | 33 | 1006.4 |
| 20260906080321 | 25 | 274 | 6.4 | 9.7 | 0.00 | 0.00 | 0.00 | 33 | 1006.7 |
| 20260906075250 | 25 | 269 | 8.0 | 11.3 | 0.00 | 0.00 | 0.00 | 34 | 1006.7 |
| 20260906074250 | 25 | 265 | 8.0 | 11.3 | 0.00 | 0.00 | 0.00 | 34 | 1006.8 |
| 20260906073240 | 24 | 267 | 6.4 | 11.3 | 0.00 | 0.00 | 0.00 | 34 | 1006.9 |
| 20260906072221 | 25 | 243 | 6.4 | 9.7 | 0.00 | 0.00 | 0.00 | 34 | 1006.9 |
| 20260906071211 | 25 | 250 | 4.8 | 8.0 | 0.00 | 0.00 | 0.00 | 34 | 1007.0 |
| 20260906070138 | 25 | 233 | 3.2 | 8.0 | 0.00 | 0.00 | 0.00 | 33 | 1006.9 |
| 20260906065109 | 25 | 257 | 0.0 | 1.6 | 0.00 | 0.00 | 0.00 | 33 | 1007.0 |
| 20260906064035 | 25 | 179 | 0.0 | 6.4 | 0.00 | 0.00 | 0.00 | 35 | 1007.0 |
| 20260906063019 | 25 | 123 | 0.0 | 6.4 | 0.00 | 0.00 | 0.00 | 35 | 1007.0 |
| 20260906060829 | 25 | 123 | 0.0 | 6.4 | 0.00 | 0.00 | 0.00 | 34 | 1006.7 |
| 20260906055830 | 25 | 200 | 0.0 | 9.7 | 0.00 | 0.00 | 0.00 | 34 | 1006.6 |
| 20260906054828 | 26 | 125 | 1.6 | 9.7 | 0.00 | 0.00 | 0.00 | 34 | 1006.4 |
| 20260906053818 | 26 | 295 | 3.2 | 12.9 | 0.00 | 0.00 | 0.00 | 33 | 1006.3 |
| 20260906051659 | 26 | 307 | 4.8 | 11.3 | 0.00 | 0.00 | 0.00 | 32 | 1006.2 |
| 20260906050649 | 26 | 293 | 4.8 | 12.9 | 0.00 | 0.00 | 0.00 | 32 | 1006.2 |
| 20260906045624 | 26 | 307 | 6.4 | 14.5 | 0.00 | 0.00 | 0.00 | 32 | 1006.2 |
| 20260906043449 | 26 | 319 | 6.4 | 11.3 | 0.00 | 0.00 | 0.00 | 32 | 1006.2 |
| 20260906041331 | 27 | 281 | 6.4 | 12.9 | 0.00 | 0.00 | 0.00 | 31 | 1006.1 |
| 20260906040310 | 27 | 293 | 8.0 | 12.9 | 0.00 | 0.00 | 0.00 | 30 | 1006.1 |
| 20260906033037 | 27 | 255 | 6.4 | 11.3 | 0.00 | 0.00 | 0.00 | 30 | 1006.0 |
| 20260906025747 | 28 | 308 | 8.0 | 14.5 | 0.00 | 0.00 | 0.00 | 30 | 1005.6 |
| 20260906023610 | 28 | 284 | 6.4 | 11.3 | 0.00 | 0.00 | 0.00 | 29 | 1005.3 |
| 20260906022543 | 28 | 303 | 4.8 | 9.7 | 0.00 | 0.00 | 0.00 | 30 | 1005.1 |
| 20260906021544 | 29 | 284 | 3.2 | 9.7 | 0.00 | 0.00 | 0.00 | 30 | 1005.2 |
| 20260906020559 | 29 | 280 | 3.2 | 9.7 | 0.00 | 0.00 | 0.00 | 31 | 1005.1 |
| 20260906015545 | 29 | 247 | 0.0 | 1.6 | 0.00 | 0.00 | 0.00 | 31 | 1004.9 |
| 20260906014537 | 30 | 249 | 0.0 | 0.0 | 0.00 | 0.00 | 0.00 | 31 | 1004.8 |
| 20260906013544 | 30 | 252 | 0.0 | 1.6 | 0.00 | 0.00 | 0.00 | 31 | 1004.8 |
| 20260906010422 | 31 | 251 | 0.0 | 4.8 | 0.00 | 0.00 | 0.00 | 29 | 1004.8 |
| 20260906005352 | 31 | 240 | 0.0 | 4.8 | 0.00 | 0.00 | 0.00 | 29 | 1004.8 |
| 20260906004353 | 31 | 260 | 4.8 | 11.3 | 0.00 | 0.00 | 0.00 | 29 | 1004.9 |
| 20260906003347 | 31 | 304 | 4.8 | 11.3 | 0.00 | 0.00 | 0.00 | 28 | 1004.8 |
| 20260906000124 | 33 | 285 | 1.6 | 11.3 | 0.00 | 0.00 | 0.00 | 27 | 1004.7 |
| 20260905235059 | 32 | 307 | 1.6 | 16.1 | 0.00 | 0.00 | 0.00 | 27 | 1004.7 |